Wind_Speed
43 38 37 35 36 32 27 23 23 19 17 16 15 15 15 12 11 10 9 10 10 9 8 7 6 7 7 8 10 12 16 19 20 22 25 26 26 27 29 32 31 28 27
45 48 47 42 41 37 32 28 24 20 20 20 20 18 15 17 15 14 13 12 12 12 12 10 8 9 9 11 12 14 16 19 20 21 22 23 24 28 29 32 29 30 29
44 46 45 35 53 42 36 34 22 22 24 23 23 21 19 16 14 16 17 16 18 18 16 15 14 13 13 14 15 14 15 16 18 20 22 23 26 26 26 26 26 26 25
42 48 54 53 24 46 36 36 24 24 25 27 25 24 24 22 17 18 21 20 21 22 22 21 19 17 17 16 16 17 17 18 19 20 21 23 26 26 26 26 26 27 27
42 47 55 55 50 40 39 35 30 29 29 31 28 27 28 27 21 19 25 25 25 28 25 24 23 21 20 22 21 19 21 21 21 22 22 23 24 25 26 27 28 27 26
45 48 53 58 57 60 31 37 35 33 35 32 32 31 30 27 25 23 29 25 22 21 23 27 22 25 25 25 24 23 24 24 24 25 25 24 24 27 28 26 26 25 26
42 40 30 37 32 17 24 17 30 45 41 39 39 38 33 33 29 25 26 26 25 24 24 24 25 29 32 30 25 20 22 25 26 28 28 28 26 27 26 26 26 25 25
28 20 21 22 14 18 26 25 28 30 41 43 42 42 38 36 33 30 32 27 26 25 26 25 25 25 25 21 20 20 21 25 26 28 28 28 28 27 27 25 25 25 25
22 20 23 20 21 20 20 19 24 25 31 44 45 43 41 39 38 36 33 28 26 27 26 27 26 25 18 24 25 27 26 28 31 30 28 29 28 27 27 30 30 29 29
25 25 21 23 29 22 25 26 24 26 32 41 47 37 35 40 41 33 34 33 28 28 29 28 29 30 29 30 31 31 32 31 32 31 30 29 28 27 27 28 29 26 26
27 30 21 26 28 24 22 27 32 34 34 36 37 34 37 40 39 31 34 38 34 30 30 30 30 30 33 35 35 35 36 36 34 32 32 29 27 25 26 25 25 24 23
30 27 20 24 30 30 26 28 31 27 30 30 24 27 29 33 36 35 38 38 37 35 32 30 29 29 31 32 35 38 38 35 37 35 35 32 29 28 29 28 27 23 21
24 16 20 27 31 33 29 28 19 18 19 21 24 28 30 35 35 38 41 40 39 34 31 33 34 30 30 35 34 35 36 37 38 41 38 36 31 28 21 22 21 20 22
20 19 21 24 27 28 26 21 24 28 27 27 27 30 33 36 39 41 39 38 40 40 34 34 35 32 31 34 37 35 39 45 50 47 43 37 34 29 29 28 27 26 23
21 20 21 25 28 29 29 29 30 32 32 32 34 34 38 40 42 43 41 39 38 40 39 39 37 37 37 35 38 41 46 40 43 43 43 39 37 34 31 29 29 29 26
24 24 24 24 28 30 33 34 35 39 40 37 39 39 42 44 43 44 43 42 41 40 40 39 40 40 39 37 37 39 36 35 41 42 43 42 41 36 34 33 30 30 30
22 23 26 28 28 29 31 33 35 38 41 43 44 44 41 38 36 38 40 41 43 42 42 41 41 38 36 36 34 33 34 35 42 44 44 43 40 39 37 33 35 35 34
29 28 29 29 29 30 31 32 34 37 39 39 40 41 41 42 40 40 41 42 42 42 42 42 42 38 35 34 35 33 32 39 43 51 48 44 46 47 44 39 38 38 37
28 29 30 32 34 35 37 38 38 40 41 42 42 41 42 43 42 41 41 43 43 43 41 40 40 37 35 33 34 34 36 36 46 47 50 53 50 50 47 43 40 41 37
24 23 24 26 29 32 34 34 36 38 43 44 44 45 44 43 41 41 41 40 40 38 36 36 35 35 34 33 31 29 39 41 46 50 51 45 43 47 41 39 38 40 35
23 22 22 24 26 27 29 30 31 30 30 32 35 37 42 42 41 41 40 39 37 35 33 35 35 35 34 37 38 36 33 46 45 47 46 45 43 40 35 36 36 33 31
27 27 26 26 27 28 28 28 27 28 26 25 25 26 28 32 34 36 37 37 38 35 33 30 32 36 35 39 37 40 37 34 42 48 47 43 40 34 36 35 30 30 22
31 31 31 32 32 31 30 28 27 29 25 20 21 21 21 22 26 27 29 30 30 33 29 36 44 37 42 54 50 40 27 29 37 39 35 36 32 30 29 26 18 14 17
33 31 30 31 29 30 32 30 30 28 26 24 25 21 21 18 19 21 25 28 30 30 32 31 34 33 39 36 30 35 33 35 37 39 32 26 26 24 18 11 14 21 24
31 30 28 26 26 26 26 27 25 26 27 26 25 22 21 21 17 23 19 17 16 21 25 26 30 40 49 41 30 23 22 23 24 24 24 18 19 11 7 15 22 22 22
30 29 30 29 29 28 28 26 24 23 23 25 26 26 26 24 21 25 27 23 29 14 25 17 16 14 21 23 15 14 16 13 14 13 9 11 15 16 17 18 20 23 25
Wind_Direction
247 251 259 260 263 266 273 272 270 258 257 257 257 246 251 248 246 245 236 232 229 230 235 241 243 248 237 227 241 239 246 253 257 265 267 269 268 262 266 269 274 271 266
241 243 246 247 253 254 257 263 258 254 253 254 254 259 249 256 257 261 261 259 260 254 245 247 242 240 238 240 238 242 248 255 260 264 267 269 270 272 271 269 270 270 267
241 245 251 218 225 236 242 250 231 251 250 252 255 256 255 251 260 260 254 260 267 262 254 248 245 246 250 245 245 248 255 261 265 266 269 272 272 276 278 275 274 271 267
242 241 244 249 212 221 229 235 222 233 252 250 255 256 257 255 256 265 267 264 277 280 272 265 265 262 259 261 267 267 260 258 264 267 269 270 274 279 281 280 281 274 271
244 245 244 252 267 235 236 230 232 220 237 245 251 258 256 260 264 271 271 262 268 273 269 269 271 272 274 275 271 268 268 264 261 263 266 269 274 278 281 281 276 277 276
246 251 252 262 258 245 259 254 241 233 235 239 247 249 256 261 269 275 276 268 277 283 277 269 266 275 279 265 265 270 275 278 277 276 276 272 274 278 276 277 272 273 273
261 270 288 299 251 286 251 262 275 265 245 240 242 246 250 256 260 263 273 277 280 287 283 272 265 273 280 270 260 270 279 282 281 277 278 280 277 277 278 279 280 282 277
288 302 312 300 257 262 281 298 280 281 263 244 247 250 247 255 261 263 267 275 284 286 281 274 279 286 284 250 250 266 277 281 279 281 282 279 278 278 276 277 278 280 282
280 294 295 280 249 231 246 267 279 270 276 257 246 247 246 250 257 263 272 272 277 282 280 279 274 272 258 257 263 271 274 282 278 279 281 278 276 277 275 274 274 279 282
277 284 277 263 247 236 243 256 257 256 263 268 259 258 239 241 252 262 274 278 276 278 283 285 282 280 276 267 267 269 271 275 285 273 276 277 273 272 278 280 278 276 279
261 270 268 254 247 247 253 247 250 258 257 248 249 253 229 239 254 261 268 274 277 272 272 278 282 277 275 274 271 271 274 279 279 270 265 264 268 273 278 282 287 280 279
253 256 263 256 260 259 251 247 241 241 243 241 220 221 230 243 251 260 263 269 270 268 270 267 272 276 276 269 270 270 276 272 277 284 263 265 263 266 273 281 281 275 273
261 254 251 264 251 241 231 215 221 225 221 224 227 231 239 247 255 263 269 271 269 262 261 270 275 273 277 274 281 274 267 266 270 277 268 262 264 264 268 270 270 266 263
258 245 245 251 236 230 224 226 225 233 233 233 240 250 256 257 262 266 269 268 267 267 268 270 277 281 281 280 286 277 278 280 272 268 263 255 257 265 262 260 263 263 262
273 273 265 261 257 256 253 244 245 244 248 249 253 256 264 268 267 268 270 265 261 268 272 276 281 282 283 282 287 286 287 275 268 261 256 251 255 262 265 262 258 256 258
280 278 269 270 272 259 256 257 258 257 257 263 256 266 265 264 262 262 263 263 264 265 269 275 277 278 283 286 284 289 277 269 264 251 252 247 253 257 261 259 257 256 258
275 274 275 272 267 271 267 265 265 261 263 263 263 267 265 264 260 261 263 265 268 268 270 273 277 277 281 284 286 288 283 268 255 252 250 243 251 257 256 250 251 253 254
281 276 273 270 270 267 266 267 266 266 266 264 264 263 262 262 262 261 263 265 266 267 270 271 272 275 277 275 277 276 287 283 264 255 252 238 240 250 253 250 251 253 255
290 287 282 280 276 271 268 266 267 269 269 269 268 267 266 266 265 263 264 264 264 267 271 276 279 277 275 282 282 276 272 276 259 258 263 251 244 246 249 247 247 251 250
309 304 296 291 287 285 283 277 271 270 270 271 271 271 270 267 267 265 263 264 265 267 273 275 274 274 274 274 265 272 273 266 264 265 258 254 250 249 251 254 251 255 253
308 304 298 298 298 296 292 287 283 282 278 276 273 273 272 272 270 268 270 270 269 270 273 272 267 264 260 256 261 274 269 274 268 256 253 255 244 252 259 257 257 250 252
303 297 294 293 290 292 293 293 289 286 281 285 286 285 279 275 272 270 272 271 269 271 272 245 262 265 269 266 265 264 270 279 270 256 251 247 257 256 254 250 250 249 244
303 301 296 292 286 283 285 287 288 286 286 287 287 280 279 279 274 269 265 264 262 258 256 254 260 246 244 247 248 253 262 263 264 253 255 252 253 247 242 240 246 273 278
299 298 295 292 290 285 280 280 281 282 276 269 275 274 268 267 267 266 257 254 254 253 253 254 255 261 259 239 252 249 248 253 253 255 245 238 236 239 251 262 265 265 267
295 294 292 294 290 286 284 280 275 270 268 265 264 259 258 254 259 262 234 217 236 251 250 245 245 240 240 255 247 242 243 240 238 235 239 269 297 318 281 258 263 265 267
291 290 289 288 288 288 286 286 283 276 268 264 261 257 255 252 244 254 274 291 287 265 234 228 236 229 229 223 220 233 248 262 273 273 279 260 250 247 247 253 260 265 271
Height
5836 5841 5843 5845 5844 5845 5846 5848 5847 5848 5846 5843 5842 5840 5842 5841 5843 5843 5843 5842 5841 5840 5839 5838 5837 5837 5837 5840 5842 5844 5845 5846 5847 5846 5847 5847 5847 5848 5849 5850 5850 5850 5850
5826 5827 5828 5831 5834 5835 5837 5837 5842 5842 5841 5840 5838 5838 5839 5839 5840 5841 5842 5842 5842 5840 5837 5835 5834 5835 5835 5836 5837 5838 5839 5840 5841 5841 5841 5841 5841 5842 5841 5841 5841 5843 5842
5820 5822 5815 5775 5803 5823 5825 5826 5831 5835 5835 5834 5833 5834 5836 5834 5836 5838 5837 5837 5838 5838 5836 5834 5831 5830 5832 5832 5833 5833 5832 5834 5835 5836 5836 5836 5836 5836 5835 5835 5835 5834 5835
5807 5810 5809 5803 5771 5803 5811 5814 5820 5826 5828 5828 5828 5829 5832 5831 5829 5833 5834 5834 5835 5835 5834 5832 5830 5828 5828 5827 5828 5828 5828 5827 5828 5829 5831 5830 5830 5830 5829 5830 5830 5830 5829
5799 5803 5805 5800 5800 5803 5804 5808 5815 5815 5817 5821 5822 5824 5826 5826 5825 5825 5827 5827 5827 5828 5829 5829 5828 5826 5826 5826 5825 5825 5825 5824 5823 5823 5823 5823 5824 5824 5823 5823 5823 5823 5823
5792 5790 5790 5797 5786 5788 5800 5803 5808 5807 5808 5810 5813 5814 5820 5819 5820 5818 5821 5820 5820 5820 5821 5821 5822 5821 5820 5819 5820 5819 5820 5820 5819 5818 5816 5817 5817 5817 5816 5816 5815 5815 5815
5789 5788 5788 5789 5776 5788 5793 5793 5797 5798 5800 5801 5803 5807 5810 5812 5814 5811 5812 5814 5812 5813 5814 5813 5813 5813 5812 5811 5812 5812 5813 5813 5813 5812 5811 5811 5811 5810 5811 5810 5810 5809 5809
5779 5780 5780 5775 5777 5779 5783 5782 5788 5789 5792 5793 5795 5799 5800 5804 5807 5805 5804 5807 5806 5806 5806 5806 5805 5804 5803 5802 5805 5805 5806 5807 5806 5805 5805 5805 5805 5805 5804 5803 5804 5803 5804
5768 5766 5766 5768 5770 5771 5775 5778 5778 5779 5783 5786 5787 5789 5792 5795 5797 5798 5796 5798 5799 5798 5798 5799 5798 5798 5798 5797 5800 5800 5800 5799 5799 5797 5798 5798 5797 5798 5798 5796 5796 5796 5798
5759 5759 5760 5762 5767 5766 5768 5768 5767 5768 5773 5776 5778 5781 5781 5785 5790 5791 5790 5791 5792 5792 5791 5791 5792 5791 5791 5790 5790 5790 5790 5790 5789 5788 5789 5790 5790 5790 5790 5789 5790 5788 5789
5752 5754 5755 5757 5759 5758 5758 5760 5762 5760 5761 5765 5765 5770 5774 5777 5783 5784 5784 5783 5784 5785 5784 5784 5783 5784 5782 5782 5781 5780 5780 5780 5780 5779 5779 5779 5781 5782 5781 5781 5782 5780 5781
5747 5747 5747 5747 5748 5749 5749 5749 5751 5750 5753 5754 5756 5762 5768 5772 5776 5776 5777 5777 5776 5777 5777 5775 5775 5774 5773 5772 5773 5774 5772 5772 5771 5773 5771 5772 5771 5770 5772 5771 5773 5773 5774
5739 5739 5743 5741 5741 5743 5745 5746 5746 5746 5749 5752 5756 5760 5763 5766 5768 5768 5767 5768 5767 5766 5767 5765 5765 5765 5765 5762 5762 5762 5760 5760 5761 5762 5765 5766 5766 5764 5764 5765 5766 5767 5765
5735 5736 5736 5738 5736 5737 5738 5740 5744 5746 5749 5750 5753 5754 5757 5758 5759 5757 5757 5757 5755 5754 5755 5756 5754 5755 5754 5752 5751 5752 5751 5749 5748 5750 5751 5757 5758 5758 5757 5756 5757 5759 5760
5729 5729 5729 5731 5731 5732 5733 5735 5738 5740 5740 5742 5743 5744 5746 5747 5745 5745 5745 5744 5746 5743 5742 5742 5744 5741 5740 5740 5740 5739 5738 5736 5736 5736 5740 5745 5747 5749 5750 5748 5749 5751 5752
5721 5722 5722 5722 5723 5724 5725 5726 5727 5730 5732 5732 5733 5734 5733 5735 5733 5732 5732 5733 5733 5733 5732 5732 5732 5732 5730 5728 5728 5728 5726 5728 5726 5726 5731 5734 5736 5738 5740 5740 5740 5741 5742
5714 5714 5715 5714 5714 5714 5714 5715 5716 5718 5720 5721 5721 5720 5721 5719 5719 5719 5719 5719 5721 5720 5721 5720 5720 5720 5719 5719 5719 5719 5717 5718 5717 5718 5720 5722 5725 5727 5730 5730 5730 5731 5732
5707 5706 5706 5707 5706 5705 5706 5706 5707 5707 5707 5707 5708 5708 5709 5710 5708 5708 5710 5710 5709 5709 5709 5708 5708 5707 5708 5708 5708 5710 5708 5709 5709 5707 5708 5707 5711 5714 5716 5717 5717 5720 5721
5699 5697 5696 5695 5696 5696 5696 5695 5695 5695 5695 5694 5694 5696 5697 5697 5697 5697 5697 5698 5697 5697 5696 5696 5695 5696 5695 5695 5695 5696 5698 5697 5696 5697 5696 5697 5697 5699 5702 5704 5706 5707 5708
5690 5689 5687 5686 5685 5683 5683 5683 5683 5682 5681 5682 5682 5683 5684 5684 5683 5685 5685 5685 5684 5684 5684 5683 5684 5684 5685 5685 5685 5687 5688 5687 5687 5687 5685 5685 5687 5689 5691 5694 5695 5696 5696
5682 5681 5680 5678 5676 5675 5672 5672 5671 5671 5672 5670 5670 5670 5669 5670 5671 5671 5673 5672 5672 5672 5672 5674 5674 5674 5674 5676 5677 5679 5679 5679 5677 5677 5677 5679 5681 5683 5684 5686 5687 5687 5687
5674 5672 5671 5669 5667 5666 5666 5664 5663 5662 5661 5660 5660 5659 5658 5657 5657 5658 5659 5660 5660 5661 5663 5664 5662 5664 5664 5664 5666 5667 5668 5665 5665 5666 5668 5671 5672 5673 5674 5676 5677 5678 5679
5666 5663 5661 5659 5660 5659 5657 5656 5655 5654 5652 5651 5649 5648 5647 5647 5648 5648 5648 5650 5650 5650 5650 5652 5652 5654 5655 5653 5654 5655 5655 5657 5658 5658 5660 5661 5661 5663 5665 5667 5667 5667 5669
5657 5655 5653 5651 5650 5648 5647 5647 5646 5645 5644 5643 5642 5642 5641 5640 5639 5638 5638 5639 5638 5639 5641 5642 5643 5644 5643 5642 5642 5643 5644 5647 5649 5650 5650 5651 5651 5654 5655 5657 5659 5661 5662
5650 5648 5646 5645 5643 5641 5639 5637 5636 5635 5634 5634 5634 5634 5634 5633 5632 5632 5629 5629 5630 5630 5631 5631 5632 5635 5636 5637 5637 5637 5638 5640 5640 5641 5641 5642 5642 5643 5646 5650 5652 5653 5652
5643 5641 5640 5638 5636 5635 5633 5631 5629 5628 5626 5625 5625 5625 5625 5626 5625 5624 5623 5621 5622 5623 5623 5622 5623 5624 5624 5624 5626 5628 5630 5631 5632 5632 5634 5637 5638 5639 5639 5641 5643 5645 5645